Regional Weather Roundup
Issued by NWS Jackson, KY

Home | Current Version | Previous Version | Graphics & Text | Print | Product List | Glossary On
Versions: 1 2 3 4 5 6 7 8 9 10 11 12 13 14 15 16 17 18 19 20 21 22 23 24 25 26 27
000
ASUS43 KJKL 212110
RWRJKL

EAST KENTUCKY HOURLY WEATHER ROUNDUP
NATIONAL WEATHER SERVICE JACKSON KY
500 PM EDT FRI JUL 21 2017

NOTE: "FAIR" INDICATES FEW OR NO CLOUDS BELOW 12,000 FEET WITH
NO SIGNIFICANT WEATHER AND/OR OBSTRUCTIONS TO VISIBILITY.

* THESE REPORTS ARE NOT UNDER NWS QUALITY CONTROL AND MAY NOT
  REPORT WEATHER SUCH AS PRECIPITATION AND FOG.

KYZ079-080-083-085-087-088-110-112-115-119-120-212200
...EASTERN KENTUCKY...

CITY           SKY/WX    TMP DP  RH WIND       PRES   REMARKS
JACKSON        MOSUNNY   90  72  55 VRB3      30.02F HX  97
LONDON         MOSUNNY   92  67  43 SW6       30.02F HX  95
SOMERSET*      MOSUNNY   90  68  48 W6        30.02F HX  93
MONTICELLO*    MOSUNNY   93  76  57 NW9G16    30.03F HX 105
WILLIAMSBURG*  PTCLDY    93  70  46 SW6       30.02F HX  99
MIDDLESBORO*   SUNNY     92  72  52 W5        30.03F HX  99
HARLAN APT*    PTCLDY    91  64  40 SW6       30.05F HX  93
PIKE CO APT*     N/A     89  71  55 SW5       30.02F HX  95
BIG SANDY APT* MOCLDY    89  74  59 CALM      30.01F HX  98
MOREHEAD APT*  CLOUDY    91  70  49 SW7G14    30.02S HX  97
ASHLAND*         N/A    N/A N/A N/A MISG        N/A
$$

KYZ035-036-041-042-044-050-067-078-099-212200
...CENTRAL KENTUCKY...

CITY           SKY/WX    TMP DP  RH WIND       PRES   REMARKS
MT STERLING*   SUNNY     91  72  52 W8        30.02F HX  98
FLEMING/MASON* PTSUNNY   89  76  65 E3        30.01F HX 100
DANVILLE*      MOSUNNY   95  72  46 W6        30.02F HX 103
LEXINGTON      MOSUNNY   93  70  46 SW8       30.00F HX  99
FRANKFORT      SUNNY     93  73  52 SW8       29.98F HX 102
LOUISVILLE     PTSUNNY   96  74  48 SW12G17   29.96F HX 107
LEBANON*         N/A     93  70  46 SW8       30.00F HX  99
GLASGOW*       SUNNY     94  71  46 W6        29.99F HX 101
BOWLING GREEN  MOSUNNY   96  72  45 SW8G20    29.97F HX 104
$$

KYZ091>093-OHZ055-061-077-WVZ005-015-034-035-042-212200
...SOUTHERN OHIO/WEST VIRGINIA...

CITY           SKY/WX    TMP DP  RH WIND       PRES   REMARKS
COVINGTON      MOSUNNY   88  78  72 W3        29.99F HX 101
COLUMBUS       CLOUDY    83  73  72 SW8       29.99F
DAYTON         MOSUNNY   84  70  62 SW8       30.01F
WILMINGTON     CLOUDY    84  74  71 SW5       30.01F HX  91
HUNTINGTON     MOSUNNY   85  71  63 N3        30.00F HX  90
CHARLESTON     PTSUNNY   86  70  58 VRB3      30.00F HX  90
PINEVILLE*     SUNNY     89  70  54 MISG      30.09F HX  94
BECKLEY        MOSUNNY   85  66  53 NW10      30.09F
BLUEFIELD      MOSUNNY   83  67  58 MISG      30.12F
LOGAN CO APT*    N/A     88  70  55 CALM      30.03F HX  92
$$

VAZ002-007-008-TNZ017-027-036-066-071-212200
...SOUTHWEST VIRGINIA/EAST TENNESSEE...

CITY           SKY/WX    TMP DP  RH WIND       PRES   REMARKS
WISE*          SUNNY     90  61  37 CALM      30.12F
JONESVILLE*      N/A     93  68  43 CALM      30.05F HX  97
ABINGDON*      CLOUDY    89  70  54 S8        30.08F HX  94
BRISTOL        PTSUNNY   89  67  47 SW3       30.05F HX  92
MORRISTOWN*    CLEAR     91  70  49 NW7       30.02F HX  97
SEVIERVILLE*   CLEAR     93  63  36 VRB7      30.00F HX  94
KNOXVILLE      PTSUNNY   95  63  34 VRB6      29.99F HX  96
LAFOLLETTE*    MOCLDY    88  75  66 CALM      30.05F HX  97
OAK RIDGE      SUNNY     95  71  45 VRB5      30.02F HX 102
CROSSVILLE     SUNNY     90  67  46 NW3       30.07F HX  93
NASHVILLE      PTSUNNY   95  70  44 S5        29.99F HX 101
$$

...KEY TO REMARKS...
VSB - VISIBILITY IN MILES
WCI - WIND CHILL INDEX
HX  - HEAT INDEX

$$




USA.gov is the U.S. government's official web portal to all federal, state and local government web resources and services.